Вернуться в каталог

STARLINK-33723

АктивенСвязьVLEO
NORAD 63593·PAYLOAD·🇺🇸 United States

Запущен Apr 14, 2025 с Cape Canaveral Space Force Station

Loading…

Ближайшие Пролёты (ближайшие 24 часа)

TLE

СвежийSource: CelesTrak SupGP

Эпоха: Sep 15, 2026, 02:23 UTC

1 63593C 25076AA  26258.09979167  .00039130  00000+0  14171-2 0  2586
2 63593  43.0028 331.8441 0001473 272.9147 316.6571 15.27564168    11

Отслеживайте STARLINK-33723 в реальном времени с AllMySat

Download on the App Store